Location: Quebec
(46.8000°N, 71.2500°W)
Time: 14:02:23
(UTC-04:00)

Vanguard 1 - Visible Passes

Search period start: 23 June 2018 00:00
Search period end: 03 July 2018 00:00
Orbit: 650 x 3833 km, 34.3° (Epoch: 22 June)

Date Brightness Start Highest point End Pass type
(mag) Time Alt. Az. Time Alt. Az. Time Alt. Az.
23 Jun 12.8 04:11:00 10° SE 04:13:54 12° SE 04:17:15 10° ESE visible
28 Jun 12.3 03:33:31 10° SSE 03:36:27 12° SE 03:39:58 10° ESE visible
29 Jun 12.0 03:52:10 10° S 03:56:38 18° SE 04:02:40 10° ESE visible
30 Jun 11.9 04:11:42 10° SSW 04:16:54 23° SE 04:24:34 10° E visible
